Cairo, Egypt

10:02 AM EET on August 22, 2017 (GMT +0200)
Cairo International Airport

Weather History for HECA - February, 2014

Change the Weather History Date:

Friday, February 21, 2014

  Actual Average Record
Temperature  
Mean Temperature 68 °F -  
Max Temperature 84 °F 70 °F 84 °F (2014)
Min Temperature 53 °F 52 °F 44 °F (1999)
Cooling Degree Days 4    
Growing Degree Days 18 (Base 50)    
Moisture  
Dew Point 43 °F    
Average Humidity 47    
Maximum Humidity 94    
Minimum Humidity 9    
Precipitation  
Precipitation 0.00 in 0.01 in - ()
Sea Level Pressure  
Sea Level Pressure 29.97 in    
Wind  
Wind Speed 4 mph ()    
Max Wind Speed 12 mph    
Max Gust Speed -    
Visibility 2.1 miles    
Events Fog    
Averages and records for this station are not official NWS values.
T = Trace of Precipitation, MM = Missing Value Source: Averaged Metar Reports

Daily Weather History Graph

Daily Weather History Graph

Search for Another Location

Airport or City:

Trip Planner

Search our weather history database for the weather conditions in past years. The results will help you decide how hot, cold, wet, or windy it might be!

Date:

Astronomy

Feb. 21, 2014 Rise Set
Actual Time 6:29 AM EET 5:47 PM EET
Civil Twilight 6:04 AM EET 6:11 PM EET
Nautical Twilight 5:36 AM EET 6:39 PM EET
Astronomical Twilight 5:09 AM EET 7:07 PM EET
Moon 11:53 PM EET (2/21) 10:06 AM EET (2/21)
Length of Visible Light 12h 06m
Length of Day
11h 18m
Waning Gibbous, 64% of the Moon is Illuminated
Feb 21
Waning Gibbous
Feb 22
Last Quarter
Mar 1
New
Mar 8
First Quarter
Mar 16
Full

Hourly Weather History & Observations

Time (EET) Temp. Dew Point Humidity Pressure Visibility Wind Dir Wind Speed Gust Speed Precip Events Conditions
12:00 AM 59.0 °F 53.6 °F 82% 30.04 in - NNE 8.1 mph - N/A   Clear
12:30 AM 59.0 °F 53.6 °F 82% 30.04 in - NNE 8.1 mph - N/A   Clear
1:00 AM 60.8 °F 44.6 °F 55% 30.04 in - NNE 3.5 mph - N/A   Clear
1:30 AM 60.8 °F 44.6 °F 55% 30.04 in - NNE 3.5 mph - N/A   Clear
2:00 AM 62 °F 48 °F 49% 30.05 in 6 mi East 4.6 mph - -  
2:00 AM 62.6 °F 48.2 °F 59% 30.04 in - North 4.6 mph - N/A   Clear
2:30 AM 57.2 °F 50.0 °F 77% 30.04 in - North 4.6 mph - N/A   Clear
3:00 AM 55.4 °F 50.0 °F 82% 30.04 in 3.7 mi North 4.6 mph - N/A   Unknown
3:30 AM 55.4 °F 50.0 °F 82% 30.04 in 1.9 mi North 4.6 mph - N/A   Mist
4:00 AM 55.4 °F 51.8 °F 88% 30.01 in 1.9 mi North 4.6 mph - N/A   Mist
4:10 AM 53.6 °F 48.2 °F 82% 30.01 in 0.3 mi North 4.6 mph - N/A Fog Fog
4:20 AM 55.4 °F 50.0 °F 82% 30.01 in 0.1 mi Calm Calm - N/A Fog Fog
4:30 AM 55.4 °F 51.8 °F 88% 30.01 in 0.0 mi Calm Calm - N/A Fog Fog
4:50 AM 55.4 °F 50.0 °F 82% 30.01 in 0.5 mi Calm Calm - N/A Fog Fog
5:00 AM 54 °F 50 °F 82% 30.04 in 0 mi Calm Calm - - Fog Partial Fog
5:00 AM 53.6 °F 50.0 °F 88% 30.04 in 0.5 mi Calm Calm - N/A Fog Fog
5:30 AM 53.6 °F 46.4 °F 77% 30.01 in 0.6 mi Calm Calm - N/A   Mist
6:00 AM 55.4 °F 50.0 °F 82% 30.01 in 0.9 mi WSW 4.6 mph - N/A   Mist
6:30 AM 55.4 °F 53.6 °F 94% 30.04 in 0.9 mi Calm Calm - N/A   Mist
7:00 AM 53.6 °F 51.8 °F 94% 30.04 in 0.9 mi Calm Calm - N/A   Mist
7:30 AM 57.2 °F 53.6 °F 88% 30.04 in 1.2 mi Calm Calm - N/A   Mist
8:00 AM 59.0 °F 55.4 °F 88% 30.04 in 1.2 mi Calm Calm - N/A   Mist
8:30 AM 60.8 °F 55.4 °F 82% 30.04 in 1.2 mi Calm Calm - N/A   Mist
9:00 AM 62.6 °F 55.4 °F 77% 30.04 in 1.2 mi Calm Calm - N/A   Mist
9:30 AM 68.0 °F 55.4 °F 64% 30.04 in 1.2 mi Calm Calm - N/A   Mist
10:00 AM 71.6 °F 51.8 °F 50% 30.04 in 1.2 mi NNW 4.6 mph - N/A   Haze
10:30 AM 75.2 °F 51.8 °F 44% 30.04 in 1.2 mi WNW 4.6 mph - N/A   Haze
11:00 AM 74 °F 50 °F 32% 30.01 in 1 mi WNW 4.6 mph - -   Haze
11:00 AM 75.2 °F 50.0 °F 41% 30.01 in 1.2 mi WNW 4.6 mph - N/A   Haze
11:30 AM 78.8 °F 46.4 °F 32% 30.01 in 1.2 mi WSW 3.5 mph - N/A   Haze
12:00 PM 78.8 °F 37.4 °F 23% 29.98 in 1.2 mi SW 3.5 mph - N/A   Haze
12:30 PM 80.6 °F 33.8 °F 18% 29.98 in 3.7 mi SSW 8.1 mph - N/A   Unknown
1:00 PM 80.6 °F 35.6 °F 20% 29.95 in 3.7 mi SSW 9.2 mph - N/A   Unknown
1:30 PM 82.4 °F 33.8 °F 17% 29.95 in 3.7 mi SSW 8.1 mph - N/A   Unknown
2:00 PM 83 °F 33 °F 9% 29.94 in 6 mi SSW 6.9 mph - -   Clear
2:00 PM 82.4 °F 33.8 °F 17% 29.92 in - SSW 6.9 mph - N/A   Clear
2:30 PM 82.4 °F 33.8 °F 17% 29.92 in - SSW 6.9 mph - N/A   Clear
3:00 PM 84.2 °F 32.0 °F 15% 29.92 in - SSW 8.1 mph - N/A   Clear
3:30 PM 82.4 °F 33.8 °F 17% 29.89 in - SSW 9.2 mph - N/A   Clear
4:00 PM 82.4 °F 33.8 °F 17% 29.89 in - South 10.4 mph - N/A   Clear
4:30 PM 82.4 °F 33.8 °F 17% 29.89 in - SSW 8.1 mph - N/A   Clear
5:00 PM 82 °F 34 °F 10% 29.89 in 6 mi South 5.8 mph - -   Mostly Cloudy
5:00 PM 82.4 °F 33.8 °F 17% 29.89 in - South 5.8 mph - N/A   Clear
5:30 PM 82.4 °F 33.8 °F 17% 29.89 in - South 5.8 mph - N/A   Clear
6:00 PM 78.8 °F 35.6 °F 21% 29.89 in - Calm Calm - N/A   Clear
6:30 PM 78.8 °F 35.6 °F 21% 29.89 in - Calm Calm - N/A   Clear
7:00 PM 75.2 °F 37.4 °F 25% 29.89 in - Calm Calm - N/A   Clear
7:30 PM 75.2 °F 37.4 °F 25% 29.89 in - Calm Calm - N/A   Clear
8:00 PM 74 °F 37 °F 16% 29.89 in 6 mi SSE 4.6 mph - -   Scattered Clouds
8:00 PM 73.4 °F 39.2 °F 29% 29.89 in - SSE 4.6 mph - N/A   Clear
8:30 PM 73.4 °F 39.2 °F 29% 29.89 in - SSE 4.6 mph - N/A   Clear
9:00 PM 71.6 °F 37.4 °F 29% 29.89 in - SE 9.2 mph - N/A   Clear
9:30 PM 73.4 °F 37.4 °F 27% 29.89 in - ESE 11.5 mph - N/A   Clear
10:00 PM 71.6 °F 37.4 °F 29% 29.89 in - SE 10.4 mph - N/A   Clear
10:30 PM 71.6 °F 33.8 °F 25% 29.89 in - SE 9.2 mph - N/A   Clear
11:00 PM 71 °F 33 °F 15% 29.88 in 6 mi SE 10.4 mph - -  
11:00 PM 71.6 °F 33.8 °F 25% 29.86 in - SE 10.4 mph - N/A   Clear
11:30 PM 71.6 °F 32.0 °F 23% 29.86 in - SE 9.2 mph - N/A   Clear